Weather History for Pecos, TX

Change the Weather History Date:

Tuesday, October 26, 2010

  Actual Average Record
Temperature  
Mean Temperature 68 °F -  
Max Temperature 86 °F 77 °F 95 °F (1950)
Min Temperature 49 °F 44 °F 32 °F (1975)
Cooling Degree Days 2    
Growing Degree Days 18 (Base 50)    
Moisture  
Dew Point 34 °F    
Average Humidity 30    
Maximum Humidity 56    
Minimum Humidity 15    
Precipitation  
Precipitation 0.00 in - - ()
Sea Level Pressure  
Sea Level Pressure 29.80 in    
Wind  
Wind Speed 10 mph (SW)    
Max Wind Speed 28 mph    
Max Gust Speed 39 mph    
Visibility 10 miles    
Events      
Averages and records for this station are not official NWS values.
T = Trace of Precipitation, MM = Missing Value Source: NWS Daily Summary

Daily Weather History Graph

Daily Weather History Graph

Search for Another Location

Airport:

Trip Planner

Search our weather history database for the weather conditions in past years. The results will help you decide how hot, cold, wet, or windy it might be!

Date:

Astronomy

Oct. 26, 2010 Rise Set
Actual Time 8:05 AM CDT 7:10 PM CDT
Civil Twilight 7:40 AM CDT 7:35 PM CDT
Nautical Twilight 7:11 AM CDT 8:03 PM CDT
Astronomical Twilight 6:43 AM CDT 8:31 PM CDT
Moon 9:49 PM CDT (10/26) 11:33 AM CDT (10/26)
Length of Visible Light 11h 54m
Length of Day
11h 05m
Waning Gibbous, 87% of the Moon is Illuminated
Oct 26
Waning Gibbous
Oct 30
Last Quarter
Nov 5
New
Nov 13
First Quarter
Nov 21
Full

Hourly Weather History & Observations

Time (CDT) Temp. Dew Point Humidity Pressure Visibility Wind Dir Wind Speed Gust Speed Precip Events Conditions
12:05 AM 76.5 °F 33.1 °F 21% 29.68 in 10.0 mi WNW 9.2 mph - N/A   Clear
12:25 AM 77.0 °F 34.9 °F 22% 29.69 in 10.0 mi West 15.0 mph 19.6 mph N/A   Clear
12:45 AM 77.0 °F 36.3 °F 23% 29.70 in 10.0 mi West 19.6 mph 24.2 mph N/A   Clear
1:05 AM 76.6 °F 37.8 °F 25% 29.69 in 10.0 mi West 27.6 mph 33.4 mph N/A   Clear
1:25 AM 76.3 °F 38.3 °F 25% 29.69 in 10.0 mi West 27.6 mph 35.7 mph N/A   Clear
1:45 AM 76.1 °F 38.8 °F 26% 29.70 in 7.0 mi West 26.5 mph 39.1 mph N/A   Clear
2:05 AM 68.7 °F 36.1 °F 30% 29.75 in 10.0 mi NNW 18.4 mph 25.3 mph N/A   Clear
2:45 AM 64.2 °F 35.2 °F 34% 29.77 in 10.0 mi NNW 15.0 mph - N/A   Clear
3:05 AM 62.8 °F 35.2 °F 36% 29.79 in 10.0 mi NNW 10.4 mph - N/A   Clear
3:25 AM 61.3 °F 35.2 °F 38% 29.80 in 10.0 mi NNW 10.4 mph - N/A   Clear
3:45 AM 60.8 °F 35.2 °F 38% 29.80 in 10.0 mi NNW 9.2 mph - N/A   Clear
4:05 AM 60.3 °F 34.7 °F 38% 29.81 in 10.0 mi NW 5.8 mph - N/A   Clear
4:25 AM 58.1 °F 34.5 °F 41% 29.81 in 10.0 mi Calm Calm - N/A   Clear
4:47 AM 55.8 °F 34.3 °F 44% 29.82 in 10.0 mi SSE 4.6 mph - N/A   Clear
5:05 AM 55.8 °F 34.5 °F 45% 29.83 in 10.0 mi SSW 3.5 mph - N/A   Clear
5:25 AM 53.8 °F 34.7 °F 48% 29.83 in 10.0 mi South 3.5 mph - N/A   Clear
5:45 AM 52.7 °F 33.8 °F 49% 29.84 in 10.0 mi WSW 4.6 mph - N/A   Clear
6:05 AM 52.0 °F 34.0 °F 50% 29.85 in 10.0 mi SW 8.1 mph - N/A   Clear
6:25 AM 50.9 °F 33.8 °F 52% 29.85 in 10.0 mi SW 5.8 mph - N/A   Clear
6:45 AM 50.4 °F 33.6 °F 53% 29.86 in 10.0 mi West 4.6 mph - N/A   Clear
7:25 AM 50.0 °F 34.2 °F 55% 29.88 in 10.0 mi SSW 6.9 mph - N/A   Clear
7:45 AM 49.6 °F 34.0 °F 55% 29.89 in 10.0 mi SSW 8.1 mph - N/A   Clear
8:05 AM 49.3 °F 34.0 °F 56% 29.89 in 10.0 mi SW 6.9 mph - N/A   Clear
8:25 AM 50.0 °F 34.2 °F 55% 29.90 in 10.0 mi SW 5.8 mph - N/A   Clear
8:45 AM 52.0 °F 34.3 °F 51% 29.91 in 7.0 mi SW 5.8 mph - N/A   Clear
9:05 AM 54.7 °F 35.1 °F 48% 29.91 in 10.0 mi WSW 4.6 mph - N/A   Clear
9:25 AM 57.7 °F 34.9 °F 42% 29.91 in 10.0 mi Calm Calm - N/A   Clear
9:45 AM 61.5 °F 33.8 °F 35% 29.91 in 10.0 mi Calm Calm - N/A   Clear
10:05 AM 63.9 °F 30.4 °F 28% 29.92 in 10.0 mi Calm Calm - N/A   Clear
10:25 AM 64.9 °F 26.1 °F 23% 29.92 in 10.0 mi Calm Calm - N/A   Clear
10:45 AM 65.8 °F 27.1 °F 23% 29.92 in 10.0 mi East 3.5 mph - N/A   Clear
11:05 AM 67.3 °F 23.4 °F 19% 29.91 in 10.0 mi NE 3.5 mph - N/A   Clear
11:25 AM 67.3 °F 22.3 °F 18% 29.91 in 10.0 mi Calm Calm - N/A   Clear
11:45 AM 68.9 °F 21.4 °F 17% 29.90 in 10.0 mi Calm Calm - N/A   Clear
12:05 PM 70.0 °F 22.3 °F 17% 29.89 in 10.0 mi Calm Calm - N/A   Clear
12:25 PM 70.9 °F 21.4 °F 15% 29.88 in 10.0 mi Calm Calm - N/A   Clear
12:45 PM 72.7 °F 23.4 °F 16% 29.86 in 10.0 mi Calm Calm - N/A   Clear
1:05 PM 73.0 °F 27.5 °F 18% 29.85 in 10.0 mi ESE 4.6 mph - N/A   Clear
1:25 PM 73.8 °F 28.6 °F 19% 29.84 in 10.0 mi Calm Calm - N/A   Clear
1:45 PM 75.6 °F 32.4 °F 21% 29.83 in 10.0 mi Calm Calm - N/A   Clear
2:05 PM 77.0 °F 35.4 °F 22% 29.82 in 10.0 mi South 6.9 mph - N/A   Clear
2:25 PM 77.9 °F 35.8 °F 22% 29.80 in 10.0 mi SSE 3.5 mph - N/A   Clear
2:45 PM 78.3 °F 36.1 °F 22% 29.79 in 10.0 mi South 3.5 mph - N/A   Clear
3:05 PM 79.2 °F 36.5 °F 22% 29.77 in 10.0 mi South 6.9 mph - N/A   Clear
3:25 PM 80.1 °F 36.7 °F 21% 29.76 in 10.0 mi ESE 4.6 mph - N/A   Clear
3:45 PM 81.5 °F 37.0 °F 20% 29.74 in 10.0 mi East 5.8 mph - N/A   Clear
4:05 PM 82.4 °F 37.9 °F 20% 29.73 in 10.0 mi SSW 5.8 mph - N/A   Clear
4:25 PM 83.1 °F 37.9 °F 20% 29.72 in 10.0 mi SE 5.8 mph - N/A   Clear
4:45 PM 83.5 °F 37.8 °F 20% 29.72 in 10.0 mi SSW 10.4 mph - N/A   Clear
5:05 PM 86.2 °F 34.7 °F 16% 29.72 in 10.0 mi WSW 15.0 mph 20.7 mph N/A   Clear
5:25 PM 86.0 °F 34.0 °F 16% 29.72 in 10.0 mi West 17.3 mph 23.0 mph N/A   Clear
5:45 PM 84.7 °F 35.1 °F 17% 29.71 in 10.0 mi West 11.5 mph - N/A   Clear
6:05 PM 84.4 °F 34.7 °F 17% 29.71 in 10.0 mi WSW 13.8 mph 18.4 mph N/A   Clear
6:25 PM 83.7 °F 35.4 °F 18% 29.71 in 10.0 mi WSW 10.4 mph - N/A   Clear
6:45 PM 82.6 °F 36.9 °F 19% 29.71 in 10.0 mi SW 8.1 mph - N/A   Clear
7:05 PM 80.6 °F 37.2 °F 21% 29.71 in 10.0 mi WSW 6.9 mph - N/A   Clear
7:25 PM 76.6 °F 37.4 °F 24% 29.71 in 10.0 mi SSW 4.6 mph - N/A   Clear
7:45 PM 73.8 °F 37.4 °F 27% 29.72 in 10.0 mi SSW 6.9 mph - N/A   Clear
8:05 PM 72.7 °F 37.0 °F 27% 29.72 in 10.0 mi SSW 8.1 mph - N/A   Clear
8:25 PM 71.2 °F 36.5 °F 28% 29.73 in 10.0 mi SSW 6.9 mph - N/A   Clear
8:45 PM 70.3 °F 36.5 °F 29% 29.74 in 10.0 mi SSW 6.9 mph - N/A   Clear
9:05 PM 68.7 °F 36.1 °F 30% 29.75 in 10.0 mi SSW 6.9 mph - N/A   Clear
9:25 PM 66.4 °F 36.0 °F 33% 29.75 in 10.0 mi SSW 6.9 mph - N/A   Clear
9:45 PM 64.6 °F 35.6 °F 34% 29.76 in 10.0 mi SSW 6.9 mph - N/A   Clear
10:05 PM 63.5 °F 35.6 °F 35% 29.76 in 10.0 mi SW 6.9 mph - N/A   Clear
10:45 PM 62.8 °F 34.7 °F 35% 29.78 in 10.0 mi WSW 4.6 mph - N/A   Clear
11:05 PM 61.5 °F 34.7 °F 37% 29.78 in 10.0 mi Calm Calm - N/A   Clear